Year,Month,Day,Hour,Minute,Value (Times are PST for temperature in C)
2006,07,03,00,00,21.10
2006,07,03,00,01,21.10
2006,07,03,00,02,21.00
2006,07,03,00,03,21.00
2006,07,03,00,04,20.90
2006,07,03,00,05,20.80
2006,07,03,00,06,20.80
2006,07,03,00,07,20.70
2006,07,03,00,08,20.70
2006,07,03,00,09,20.60
2006,07,03,00,10,20.60
2006,07,03,00,11,20.50
2006,07,03,00,12,20.50
2006,07,03,00,13,20.40
2006,07,03,00,14,20.30
2006,07,03,00,15,20.30
2006,07,03,00,16,20.20
2006,07,03,00,17,20.20
2006,07,03,00,18,20.10
2006,07,03,00,19,20.10
2006,07,03,00,20,20.00
2006,07,03,00,21,19.90
2006,07,03,00,22,19.90
2006,07,03,00,23,19.80
2006,07,03,00,24,19.80
2006,07,03,00,25,19.70
2006,07,03,00,26,19.70
2006,07,03,00,27,19.60
2006,07,03,00,28,19.60
2006,07,03,00,29,19.50
2006,07,03,00,30,19.50
2006,07,03,00,31,19.50
2006,07,03,00,32,19.40
2006,07,03,00,33,19.40
2006,07,03,00,34,19.30
2006,07,03,00,35,19.30
2006,07,03,00,36,19.30
2006,07,03,00,37,19.20
2006,07,03,00,38,19.20
2006,07,03,00,39,19.20
2006,07,03,00,40,19.10
2006,07,03,00,41,19.10
2006,07,03,00,42,19.10
2006,07,03,00,43,19.10
2006,07,03,00,44,19.10
2006,07,03,00,45,19.10
2006,07,03,00,46,19.10
2006,07,03,00,47,19.10
2006,07,03,00,48,19.10
2006,07,03,00,49,19.10
2006,07,03,00,50,19.10
2006,07,03,00,51,19.10
2006,07,03,00,52,19.00
2006,07,03,00,53,18.90
2006,07,03,00,54,18.90
2006,07,03,00,55,18.90
2006,07,03,00,56,18.90
2006,07,03,00,57,18.90
2006,07,03,00,58,18.90
2006,07,03,00,59,18.90
2006,07,03,01,00,18.90
2006,07,03,01,01,18.90
2006,07,03,01,02,18.90
2006,07,03,01,03,18.90
2006,07,03,01,04,18.90
2006,07,03,01,05,18.90
2006,07,03,01,06,18.90
2006,07,03,01,07,18.90
2006,07,03,01,08,18.90
2006,07,03,01,09,18.90
2006,07,03,01,10,18.90
2006,07,03,01,11,18.90
2006,07,03,01,12,18.90
2006,07,03,01,13,18.90
2006,07,03,01,14,18.90
2006,07,03,01,15,18.90
2006,07,03,01,16,18.90
2006,07,03,01,17,18.90
2006,07,03,01,18,18.90
2006,07,03,01,19,18.90
2006,07,03,01,20,18.90
2006,07,03,01,21,18.90
2006,07,03,01,22,18.90
2006,07,03,01,23,18.90
2006,07,03,01,24,18.80
2006,07,03,01,25,18.80
2006,07,03,01,26,18.80
2006,07,03,01,27,18.80
2006,07,03,01,28,18.80
2006,07,03,01,29,18.80
2006,07,03,01,30,18.70
2006,07,03,01,31,18.70
2006,07,03,01,32,18.70
2006,07,03,01,33,18.70
2006,07,03,01,34,18.70
2006,07,03,01,35,18.70
2006,07,03,01,36,18.60
2006,07,03,01,37,18.60
2006,07,03,01,38,18.60
2006,07,03,01,39,18.50
2006,07,03,01,40,18.50
2006,07,03,01,41,18.40
2006,07,03,01,42,18.40
2006,07,03,01,43,18.40
2006,07,03,01,44,18.30
2006,07,03,01,45,18.30
2006,07,03,01,46,18.30
2006,07,03,01,47,18.20
2006,07,03,01,48,18.20
2006,07,03,01,49,18.20
2006,07,03,01,50,18.20
2006,07,03,01,51,18.20
2006,07,03,01,52,18.20
2006,07,03,01,53,18.20
2006,07,03,01,54,18.20
2006,07,03,01,55,18.10
2006,07,03,01,56,18.10
2006,07,03,01,57,18.10
2006,07,03,01,58,18.10
2006,07,03,01,59,18.10
2006,07,03,02,00,18.00
2006,07,03,02,01,17.90
2006,07,03,02,02,17.90
2006,07,03,02,03,17.90
2006,07,03,02,04,17.90
2006,07,03,02,05,17.90
2006,07,03,02,06,17.90
2006,07,03,02,07,17.90
2006,07,03,02,08,17.90
2006,07,03,02,09,17.90
2006,07,03,02,10,17.90
2006,07,03,02,11,17.90
2006,07,03,02,12,17.90
2006,07,03,02,13,17.80
2006,07,03,02,14,17.80
2006,07,03,02,15,17.80
2006,07,03,02,16,17.80
2006,07,03,02,17,17.80
2006,07,03,02,18,17.70
2006,07,03,02,19,17.70
2006,07,03,02,20,17.70
2006,07,03,02,21,17.70
2006,07,03,02,22,17.70
2006,07,03,02,23,17.70
2006,07,03,02,24,17.70
2006,07,03,02,25,17.60
2006,07,03,02,26,17.60
2006,07,03,02,27,17.60
2006,07,03,02,28,17.60
2006,07,03,02,29,17.50
2006,07,03,02,30,17.50
2006,07,03,02,31,17.50
2006,07,03,02,32,17.50
2006,07,03,02,33,17.40
2006,07,03,02,34,17.40
2006,07,03,02,35,17.40
2006,07,03,02,36,17.40
2006,07,03,02,37,17.30
2006,07,03,02,38,17.30
2006,07,03,02,39,17.30
2006,07,03,02,40,17.30
2006,07,03,02,41,17.30
2006,07,03,02,42,17.30
2006,07,03,02,43,17.20
2006,07,03,02,44,17.20
2006,07,03,02,45,17.20
2006,07,03,02,46,17.10
2006,07,03,02,47,17.10
2006,07,03,02,48,17.10
2006,07,03,02,49,17.00
2006,07,03,02,50,17.00
2006,07,03,02,51,17.00
2006,07,03,02,52,16.90
2006,07,03,02,53,16.90
2006,07,03,02,54,16.90
2006,07,03,02,55,16.80
2006,07,03,02,56,16.80
2006,07,03,02,57,16.80
2006,07,03,02,58,16.70
2006,07,03,02,59,16.70
2006,07,03,03,00,16.70
2006,07,03,03,01,16.70
2006,07,03,03,02,16.70
2006,07,03,03,03,16.70
2006,07,03,03,04,16.70
2006,07,03,03,05,16.60
2006,07,03,03,06,16.60
2006,07,03,03,07,16.60
2006,07,03,03,08,16.60
2006,07,03,03,09,16.60
2006,07,03,03,10,16.60
2006,07,03,03,11,16.60
2006,07,03,03,12,16.60
2006,07,03,03,13,16.60
2006,07,03,03,14,16.60
2006,07,03,03,15,16.60
2006,07,03,03,16,16.60
2006,07,03,03,17,16.60
2006,07,03,03,18,16.60
2006,07,03,03,19,16.60
2006,07,03,03,20,16.60
2006,07,03,03,21,16.60
2006,07,03,03,22,16.60
2006,07,03,03,23,16.60
2006,07,03,03,24,16.60
2006,07,03,03,25,16.60
2006,07,03,03,26,16.60
2006,07,03,03,27,16.60
2006,07,03,03,28,16.50
2006,07,03,03,29,16.40
2006,07,03,03,30,16.40
2006,07,03,03,31,16.40
2006,07,03,03,32,16.40
2006,07,03,03,33,16.40
2006,07,03,03,34,16.40
2006,07,03,03,35,16.40
2006,07,03,03,36,16.40
2006,07,03,03,37,16.40
2006,07,03,03,38,16.40
2006,07,03,03,39,16.40
2006,07,03,03,40,16.40
2006,07,03,03,41,16.40
2006,07,03,03,42,16.40
2006,07,03,03,43,16.40
2006,07,03,03,44,16.40
2006,07,03,03,45,16.40
2006,07,03,03,46,16.40
2006,07,03,03,47,16.40
2006,07,03,03,48,16.40
2006,07,03,03,49,16.40
2006,07,03,03,50,16.40
2006,07,03,03,51,16.40
2006,07,03,03,52,16.40
2006,07,03,03,53,16.40
2006,07,03,03,54,16.40
2006,07,03,03,55,16.30
2006,07,03,03,56,16.30
2006,07,03,03,57,16.30
2006,07,03,03,58,16.30
2006,07,03,03,59,16.30
2006,07,03,04,00,16.30
2006,07,03,04,01,16.30
2006,07,03,04,02,16.30
2006,07,03,04,03,16.30
2006,07,03,04,04,16.30
2006,07,03,04,05,16.30
2006,07,03,04,06,16.30
2006,07,03,04,07,16.20
2006,07,03,04,08,16.20
2006,07,03,04,09,16.20
2006,07,03,04,10,16.20
2006,07,03,04,11,16.20
2006,07,03,04,12,16.20
2006,07,03,04,13,16.20
2006,07,03,04,14,16.20
2006,07,03,04,15,16.20
2006,07,03,04,16,16.20
2006,07,03,04,17,16.20
2006,07,03,04,18,16.20
2006,07,03,04,19,16.20
2006,07,03,04,20,16.20
2006,07,03,04,21,16.20
2006,07,03,04,22,16.10
2006,07,03,04,23,16.10
2006,07,03,04,24,16.10
2006,07,03,04,25,16.10
2006,07,03,04,26,16.10
2006,07,03,04,27,16.10
2006,07,03,04,28,16.10
2006,07,03,04,29,16.10
2006,07,03,04,30,16.10
2006,07,03,04,31,16.10
2006,07,03,04,32,16.10
2006,07,03,04,33,16.10
2006,07,03,04,34,16.10
2006,07,03,04,35,16.10
2006,07,03,04,36,16.10
2006,07,03,04,37,16.10
2006,07,03,04,38,16.10
2006,07,03,04,39,16.10
2006,07,03,04,40,16.00
2006,07,03,04,41,15.90
2006,07,03,04,42,15.90
2006,07,03,04,43,16.00
2006,07,03,04,44,16.00
2006,07,03,04,45,16.00
2006,07,03,04,46,16.10
2006,07,03,04,47,16.10
2006,07,03,04,48,16.10
2006,07,03,04,49,16.10
2006,07,03,04,50,16.00
2006,07,03,04,51,15.90
2006,07,03,04,52,15.90
2006,07,03,04,53,15.90
2006,07,03,04,54,15.90
2006,07,03,04,55,15.90
2006,07,03,04,56,15.90
2006,07,03,04,57,15.90
2006,07,03,04,58,15.80
2006,07,03,04,59,15.80
2006,07,03,05,00,15.80
2006,07,03,05,01,15.80
2006,07,03,05,02,15.80
2006,07,03,05,03,15.80
2006,07,03,05,04,15.80
2006,07,03,05,05,15.80
2006,07,03,05,06,15.80
2006,07,03,05,07,15.80
2006,07,03,05,08,15.80
2006,07,03,05,09,15.80
2006,07,03,05,10,15.70
2006,07,03,05,11,15.70
2006,07,03,05,12,15.70
2006,07,03,05,13,15.70
2006,07,03,05,14,15.70
2006,07,03,05,15,15.70
2006,07,03,05,16,15.70
2006,07,03,05,17,15.70
2006,07,03,05,18,15.70
2006,07,03,05,19,15.60
2006,07,03,05,20,15.60
2006,07,03,05,21,15.60
2006,07,03,05,22,15.60
2006,07,03,05,23,15.60
2006,07,03,05,24,15.60
2006,07,03,05,25,15.50
2006,07,03,05,26,15.50
2006,07,03,05,27,15.50
2006,07,03,05,28,15.50
2006,07,03,05,29,15.50
2006,07,03,05,30,15.40
2006,07,03,05,31,15.40
2006,07,03,05,32,15.40
2006,07,03,05,33,15.40
2006,07,03,05,34,15.30
2006,07,03,05,35,15.30
2006,07,03,05,36,15.30
2006,07,03,05,37,15.30
2006,07,03,05,38,15.30
2006,07,03,05,39,15.30
2006,07,03,05,40,15.30
2006,07,03,05,41,15.30
2006,07,03,05,42,15.20
2006,07,03,05,43,15.20
2006,07,03,05,44,15.20
2006,07,03,05,45,15.20
2006,07,03,05,46,15.10
2006,07,03,05,47,15.10
2006,07,03,05,48,15.10
2006,07,03,05,49,15.10
2006,07,03,05,50,15.10
2006,07,03,05,51,15.10
2006,07,03,05,52,15.00
2006,07,03,05,53,15.00
2006,07,03,05,54,15.00
2006,07,03,05,55,15.00
2006,07,03,05,56,15.00
2006,07,03,05,57,15.00
2006,07,03,05,58,15.00
2006,07,03,05,59,14.90
2006,07,03,06,00,14.90
2006,07,03,06,01,14.90
2006,07,03,06,02,14.90
2006,07,03,06,03,14.90
2006,07,03,06,04,14.90
2006,07,03,06,05,14.90
2006,07,03,06,06,14.80
2006,07,03,06,07,14.80
2006,07,03,06,08,14.80
2006,07,03,06,09,14.80
2006,07,03,06,10,14.80
2006,07,03,06,11,14.80
2006,07,03,06,12,14.80
2006,07,03,06,13,14.80
2006,07,03,06,14,14.80
2006,07,03,06,15,14.80
2006,07,03,06,16,14.80
2006,07,03,06,17,14.80
2006,07,03,06,18,14.80
2006,07,03,06,19,14.80
2006,07,03,06,20,14.80
2006,07,03,06,21,14.80
2006,07,03,06,22,14.80
2006,07,03,06,23,14.80
2006,07,03,06,24,14.80
2006,07,03,06,25,14.80
2006,07,03,06,26,14.90
2006,07,03,06,27,14.90
2006,07,03,06,28,14.90
2006,07,03,06,29,15.00
2006,07,03,06,30,15.00
2006,07,03,06,31,15.10
2006,07,03,06,32,15.10
2006,07,03,06,33,15.10
2006,07,03,06,34,15.20
2006,07,03,06,35,15.20
2006,07,03,06,36,15.30
2006,07,03,06,37,15.30
2006,07,03,06,38,15.30
2006,07,03,06,39,15.30
2006,07,03,06,40,15.40
2006,07,03,06,41,15.50
2006,07,03,06,42,15.50
2006,07,03,06,43,15.60
2006,07,03,06,44,15.60
2006,07,03,06,45,15.70
2006,07,03,06,46,15.70
2006,07,03,06,47,15.80
2006,07,03,06,48,15.80
2006,07,03,06,49,15.80
2006,07,03,06,50,15.80
2006,07,03,06,51,15.90
2006,07,03,06,52,15.90
2006,07,03,06,53,16.00
2006,07,03,06,54,16.10
2006,07,03,06,55,16.10
2006,07,03,06,56,16.10
2006,07,03,06,57,16.20
2006,07,03,06,58,16.20
2006,07,03,06,59,16.30
2006,07,03,07,00,16.40
2006,07,03,07,01,16.40
2006,07,03,07,02,16.40
2006,07,03,07,03,16.40
2006,07,03,07,04,16.50
2006,07,03,07,05,16.60
2006,07,03,07,06,16.70
2006,07,03,07,07,16.70
2006,07,03,07,08,16.70
2006,07,03,07,09,16.70
2006,07,03,07,10,16.80
2006,07,03,07,11,16.80
2006,07,03,07,12,16.90
2006,07,03,07,13,16.90
2006,07,03,07,14,16.90
2006,07,03,07,15,17.00
2006,07,03,07,16,17.00
2006,07,03,07,17,17.10
2006,07,03,07,18,17.20
2006,07,03,07,19,17.20
2006,07,03,07,20,17.30
2006,07,03,07,21,17.30
2006,07,03,07,22,17.30
2006,07,03,07,23,17.40
2006,07,03,07,24,17.40
2006,07,03,07,25,17.50
2006,07,03,07,26,17.60
2006,07,03,07,27,17.70
2006,07,03,07,28,17.80
2006,07,03,07,29,17.90
2006,07,03,07,30,18.00
2006,07,03,07,31,18.20
2006,07,03,07,32,18.30
2006,07,03,07,33,18.40
2006,07,03,07,34,18.50
2006,07,03,07,35,18.60
2006,07,03,07,36,18.70
2006,07,03,07,37,18.70
2006,07,03,07,38,18.80
2006,07,03,07,39,18.80
2006,07,03,07,40,18.80
2006,07,03,07,41,18.90
2006,07,03,07,42,18.90
2006,07,03,07,43,18.90
2006,07,03,07,44,18.90
2006,07,03,07,45,18.90
2006,07,03,07,46,19.10
2006,07,03,07,47,19.10
2006,07,03,07,48,19.10
2006,07,03,07,49,19.20
2006,07,03,07,50,19.30
2006,07,03,07,51,19.30
2006,07,03,07,52,19.40
2006,07,03,07,53,19.40
2006,07,03,07,54,19.40
2006,07,03,07,55,19.50
2006,07,03,07,56,19.50
2006,07,03,07,57,19.60
2006,07,03,07,58,19.60
2006,07,03,07,59,19.60
2006,07,03,08,00,19.60
2006,07,03,08,01,19.70
2006,07,03,08,02,19.70
2006,07,03,08,03,19.70
2006,07,03,08,04,19.70
2006,07,03,08,05,19.70
2006,07,03,08,06,19.70
2006,07,03,08,07,19.70
2006,07,03,08,08,19.70
2006,07,03,08,09,19.70
2006,07,03,08,10,19.80
2006,07,03,08,11,19.80
2006,07,03,08,12,19.80
2006,07,03,08,13,19.80
2006,07,03,08,14,19.80
2006,07,03,08,15,19.80
2006,07,03,08,16,19.80
2006,07,03,08,17,19.80
2006,07,03,08,18,19.80
2006,07,03,08,19,19.80
2006,07,03,08,20,19.80
2006,07,03,08,21,19.80
2006,07,03,08,22,19.90
2006,07,03,08,23,19.90
2006,07,03,08,24,19.90
2006,07,03,08,25,19.90
2006,07,03,08,26,19.90
2006,07,03,08,27,19.90
2006,07,03,08,28,19.90
2006,07,03,08,29,19.90
2006,07,03,08,30,19.90
2006,07,03,08,31,20.00
2006,07,03,08,32,20.10
2006,07,03,08,33,20.10
2006,07,03,08,34,20.10
2006,07,03,08,35,20.10
2006,07,03,08,36,20.20
2006,07,03,08,37,20.20
2006,07,03,08,38,20.20
2006,07,03,08,39,20.20
2006,07,03,08,40,20.20
2006,07,03,08,41,20.20
2006,07,03,08,42,20.20
2006,07,03,08,43,20.20
2006,07,03,08,44,20.20
2006,07,03,08,45,20.20
2006,07,03,08,46,20.20
2006,07,03,08,47,20.20
2006,07,03,08,48,20.20
2006,07,03,08,49,20.20
2006,07,03,08,50,20.20
2006,07,03,08,51,20.20
2006,07,03,08,52,20.30
2006,07,03,08,53,20.30
2006,07,03,08,54,20.30
2006,07,03,08,55,20.30
2006,07,03,08,56,20.30
2006,07,03,08,57,20.30
2006,07,03,08,58,20.30
2006,07,03,08,59,20.30
2006,07,03,09,00,20.30
2006,07,03,09,01,20.40
2006,07,03,09,02,20.40
2006,07,03,09,03,20.40
2006,07,03,09,04,20.40
2006,07,03,09,05,20.40
2006,07,03,09,06,20.50
2006,07,03,09,07,20.50
2006,07,03,09,08,20.50
2006,07,03,09,09,20.50
2006,07,03,09,10,20.50
2006,07,03,09,11,20.50
2006,07,03,09,12,20.50
2006,07,03,09,13,20.50
2006,07,03,09,14,20.50
2006,07,03,09,15,20.50
2006,07,03,09,16,20.50
2006,07,03,09,17,20.50
2006,07,03,09,18,20.50
2006,07,03,09,19,20.50
2006,07,03,09,20,20.60
2006,07,03,09,21,20.60
2006,07,03,09,22,20.60
2006,07,03,09,23,20.60
2006,07,03,09,24,20.70
2006,07,03,09,25,20.70
2006,07,03,09,26,20.70
2006,07,03,09,27,20.70
2006,07,03,09,28,20.70
2006,07,03,09,29,20.70
2006,07,03,09,30,20.70
2006,07,03,09,31,20.70
2006,07,03,09,32,20.80
2006,07,03,09,33,20.80
2006,07,03,09,34,20.80
2006,07,03,09,35,20.70
2006,07,03,09,36,20.70
2006,07,03,09,37,20.70
2006,07,03,09,38,20.70
2006,07,03,09,39,20.70
2006,07,03,09,40,20.70
2006,07,03,09,41,20.70
2006,07,03,09,42,20.80
2006,07,03,09,43,20.70
2006,07,03,09,44,20.70
2006,07,03,09,45,20.70
2006,07,03,09,46,20.60
2006,07,03,09,47,20.60
2006,07,03,09,48,20.50
2006,07,03,09,49,20.50
2006,07,03,09,50,20.60
2006,07,03,09,51,20.60
2006,07,03,09,52,20.60
2006,07,03,09,53,20.60
2006,07,03,09,54,20.60
2006,07,03,09,55,20.60
2006,07,03,09,56,20.50
2006,07,03,09,57,20.50
2006,07,03,09,58,20.50
2006,07,03,09,59,20.50
2006,07,03,10,00,20.50
2006,07,03,10,01,20.60
2006,07,03,10,02,20.70
2006,07,03,10,03,20.80
2006,07,03,10,04,20.90
2006,07,03,10,05,21.00
2006,07,03,10,06,21.00
2006,07,03,10,07,21.00
2006,07,03,10,08,21.10
2006,07,03,10,09,21.10
2006,07,03,10,10,21.10
2006,07,03,10,11,21.20
2006,07,03,10,12,21.30
2006,07,03,10,13,21.30
2006,07,03,10,14,21.30
2006,07,03,10,15,21.30
2006,07,03,10,16,21.40
2006,07,03,10,17,21.40
2006,07,03,10,18,21.50
2006,07,03,10,19,21.60
2006,07,03,10,20,21.60
2006,07,03,10,21,21.60
2006,07,03,10,22,21.60
2006,07,03,10,23,21.60
2006,07,03,10,24,21.60
2006,07,03,10,25,21.60
2006,07,03,10,26,21.60
2006,07,03,10,27,21.70
2006,07,03,10,28,21.70
2006,07,03,10,29,21.70
2006,07,03,10,30,21.80
2006,07,03,10,31,21.80
2006,07,03,10,32,21.90
2006,07,03,10,33,21.90
2006,07,03,10,34,21.80
2006,07,03,10,35,21.90
2006,07,03,10,36,21.90
2006,07,03,10,37,21.90
2006,07,03,10,38,22.00
2006,07,03,10,39,22.00
2006,07,03,10,40,22.00
2006,07,03,10,41,21.90
2006,07,03,10,42,21.80
2006,07,03,10,43,21.90
2006,07,03,10,44,21.90
2006,07,03,10,45,22.00
2006,07,03,10,46,22.00
2006,07,03,10,47,22.00
2006,07,03,10,48,21.90
2006,07,03,10,49,21.90
2006,07,03,10,50,21.80
2006,07,03,10,51,21.80
2006,07,03,10,52,21.90
2006,07,03,10,53,21.90
2006,07,03,10,54,22.00
2006,07,03,10,55,22.00
2006,07,03,10,56,22.00
2006,07,03,10,57,22.00
2006,07,03,10,58,22.00
2006,07,03,10,59,22.00
2006,07,03,11,00,21.90
2006,07,03,11,01,21.90
2006,07,03,11,02,21.70
2006,07,03,11,03,21.70
2006,07,03,11,04,21.70
2006,07,03,11,05,21.70
2006,07,03,11,06,21.70
2006,07,03,11,07,21.60
2006,07,03,11,08,21.50
2006,07,03,11,09,21.40
2006,07,03,11,10,21.40
2006,07,03,11,11,21.40
2006,07,03,11,12,21.40
2006,07,03,11,13,21.40
2006,07,03,11,14,21.40
2006,07,03,11,15,21.30
2006,07,03,11,16,21.30
2006,07,03,11,17,21.20
2006,07,03,11,18,21.20
2006,07,03,11,19,21.10
2006,07,03,11,20,21.00
2006,07,03,11,21,21.00
2006,07,03,11,22,20.90
2006,07,03,11,23,20.90
2006,07,03,11,24,21.00
2006,07,03,11,25,21.00
2006,07,03,11,26,20.90
2006,07,03,11,27,20.80
2006,07,03,11,28,20.80
2006,07,03,11,29,20.70
2006,07,03,11,30,20.80
2006,07,03,11,31,20.90
2006,07,03,11,32,21.00
2006,07,03,11,33,21.20
2006,07,03,11,34,21.20
2006,07,03,11,35,21.30
2006,07,03,11,36,21.30
2006,07,03,11,37,21.40
2006,07,03,11,38,21.40
2006,07,03,11,39,21.50
2006,07,03,11,40,21.60
2006,07,03,11,41,21.60
2006,07,03,11,42,21.60
2006,07,03,11,43,21.60
2006,07,03,11,44,21.40
2006,07,03,11,45,21.50
2006,07,03,11,46,21.60
2006,07,03,11,47,21.60
2006,07,03,11,48,21.60
2006,07,03,11,49,21.70
2006,07,03,11,50,21.80
2006,07,03,11,51,21.90
2006,07,03,11,52,22.00
2006,07,03,11,53,22.00
2006,07,03,11,54,22.10
2006,07,03,11,55,22.10
2006,07,03,11,56,22.10
2006,07,03,11,57,22.10
2006,07,03,11,58,22.10
2006,07,03,11,59,22.10
2006,07,03,12,00,22.10
2006,07,03,12,01,22.20
2006,07,03,12,02,22.30
2006,07,03,12,03,22.30
2006,07,03,12,04,22.40
2006,07,03,12,05,22.50
2006,07,03,12,06,22.50
2006,07,03,12,07,22.60
2006,07,03,12,08,22.60
2006,07,03,12,09,22.40
2006,07,03,12,10,22.30
2006,07,03,12,11,22.30
2006,07,03,12,12,22.30
2006,07,03,12,13,22.50
2006,07,03,12,14,22.60
2006,07,03,12,15,22.60
2006,07,03,12,16,22.70
2006,07,03,12,17,22.80
2006,07,03,12,18,22.70
2006,07,03,12,19,22.60
2006,07,03,12,20,22.50
2006,07,03,12,21,22.50
2006,07,03,12,22,22.60
2006,07,03,12,23,22.70
2006,07,03,12,24,22.80
2006,07,03,12,25,22.80
2006,07,03,12,26,22.90
2006,07,03,12,27,22.90
2006,07,03,12,28,23.10
2006,07,03,12,29,23.20
2006,07,03,12,30,23.20
2006,07,03,12,31,23.20
2006,07,03,12,32,23.30
2006,07,03,12,33,23.30
2006,07,03,12,34,23.30
2006,07,03,12,35,23.40
2006,07,03,12,36,23.40
2006,07,03,12,37,23.40
2006,07,03,12,38,23.40
2006,07,03,12,39,23.40
2006,07,03,12,40,23.30
2006,07,03,12,41,23.40
2006,07,03,12,42,23.40
2006,07,03,12,43,23.40
2006,07,03,12,44,23.30
2006,07,03,12,45,23.30
2006,07,03,12,46,23.30
2006,07,03,12,47,23.30
2006,07,03,12,48,23.30
2006,07,03,12,49,23.30
2006,07,03,12,50,23.30
2006,07,03,12,51,23.30
2006,07,03,12,52,23.30
2006,07,03,12,53,23.30
2006,07,03,12,54,23.30
2006,07,03,12,55,23.30
2006,07,03,12,56,23.30
2006,07,03,12,57,23.30
2006,07,03,12,58,23.30
2006,07,03,12,59,23.20
2006,07,03,13,00,23.10
2006,07,03,13,01,22.90
2006,07,03,13,02,22.90
2006,07,03,13,03,22.80
2006,07,03,13,04,22.80
2006,07,03,13,05,22.90
2006,07,03,13,06,23.00
2006,07,03,13,07,23.10
2006,07,03,13,08,23.10
2006,07,03,13,09,23.20
2006,07,03,13,10,23.20
2006,07,03,13,11,23.30
2006,07,03,13,12,23.40
2006,07,03,13,13,23.50
2006,07,03,13,14,23.60
2006,07,03,13,15,23.70
2006,07,03,13,16,23.70
2006,07,03,13,17,23.80
2006,07,03,13,18,23.90
2006,07,03,13,19,23.90
2006,07,03,13,20,23.90
2006,07,03,13,21,23.90
2006,07,03,13,22,23.90
2006,07,03,13,23,23.90
2006,07,03,13,24,23.90
2006,07,03,13,25,23.80
2006,07,03,13,26,23.80
2006,07,03,13,27,23.70
2006,07,03,13,28,23.70
2006,07,03,13,29,23.70
2006,07,03,13,30,23.70
2006,07,03,13,31,23.70
2006,07,03,13,32,23.70
2006,07,03,13,33,23.70
2006,07,03,13,34,23.70
2006,07,03,13,35,23.70
2006,07,03,13,36,23.70
2006,07,03,13,37,23.70
2006,07,03,13,38,23.70
2006,07,03,13,39,23.70
2006,07,03,13,40,23.60
2006,07,03,13,41,23.40
2006,07,03,13,42,23.30
2006,07,03,13,43,23.30
2006,07,03,13,44,23.30
2006,07,03,13,45,23.20
2006,07,03,13,46,23.20
2006,07,03,13,47,23.10
2006,07,03,13,48,23.10
2006,07,03,13,49,23.10
2006,07,03,13,50,23.10
2006,07,03,13,51,23.00
2006,07,03,13,52,22.90
2006,07,03,13,53,23.00
2006,07,03,13,54,23.10
2006,07,03,13,55,23.20
2006,07,03,13,56,23.20
2006,07,03,13,57,23.30
2006,07,03,13,58,23.30
2006,07,03,13,59,23.30
2006,07,03,14,00,23.40
2006,07,03,14,01,23.60
2006,07,03,14,02,23.70
2006,07,03,14,03,23.70
2006,07,03,14,04,23.70
2006,07,03,14,05,23.70
2006,07,03,14,06,23.80
2006,07,03,14,07,23.90
2006,07,03,14,08,24.00
2006,07,03,14,09,24.10
2006,07,03,14,10,24.20
2006,07,03,14,11,24.30
2006,07,03,14,12,24.40
2006,07,03,14,13,24.50
2006,07,03,14,14,24.50
2006,07,03,14,15,24.60
2006,07,03,14,16,24.60
2006,07,03,14,17,24.60
2006,07,03,14,18,24.50
2006,07,03,14,19,24.50
2006,07,03,14,20,24.40
2006,07,03,14,21,24.20
2006,07,03,14,22,24.00
2006,07,03,14,23,23.80
2006,07,03,14,24,23.70
2006,07,03,14,25,23.50
2006,07,03,14,26,23.40
2006,07,03,14,27,23.40
2006,07,03,14,28,23.50
2006,07,03,14,29,23.60
2006,07,03,14,30,23.60
2006,07,03,14,31,23.60
2006,07,03,14,32,23.60
2006,07,03,14,33,23.60
2006,07,03,14,34,23.60
2006,07,03,14,35,23.60
2006,07,03,14,36,23.70
2006,07,03,14,37,23.60
2006,07,03,14,38,23.60
2006,07,03,14,39,23.60
2006,07,03,14,40,23.70
2006,07,03,14,41,23.80
2006,07,03,14,42,23.80
2006,07,03,14,43,23.80
2006,07,03,14,44,23.80
2006,07,03,14,45,23.70
2006,07,03,14,46,23.70
2006,07,03,14,47,23.60
2006,07,03,14,48,23.60
2006,07,03,14,49,23.60
2006,07,03,14,50,23.60
2006,07,03,14,51,23.70
2006,07,03,14,52,23.70
2006,07,03,14,53,23.70
2006,07,03,14,54,23.60
2006,07,03,14,55,23.60
2006,07,03,14,56,23.60
2006,07,03,14,57,23.40
2006,07,03,14,58,23.40
2006,07,03,14,59,23.50
2006,07,03,15,00,23.60
2006,07,03,15,01,23.70
2006,07,03,15,02,23.70
2006,07,03,15,03,23.80
2006,07,03,15,04,23.90
2006,07,03,15,05,24.00
2006,07,03,15,06,24.10
2006,07,03,15,07,24.10
2006,07,03,15,08,24.20
2006,07,03,15,09,24.30
2006,07,03,15,10,24.40
2006,07,03,15,11,24.40
2006,07,03,15,12,24.40
2006,07,03,15,13,24.50
2006,07,03,15,14,24.60
2006,07,03,15,15,24.60
2006,07,03,15,16,24.60
2006,07,03,15,17,24.60
2006,07,03,15,18,24.50
2006,07,03,15,19,24.50
2006,07,03,15,20,24.50
2006,07,03,15,21,24.40
2006,07,03,15,22,24.40
2006,07,03,15,23,24.40
2006,07,03,15,24,24.30
2006,07,03,15,25,24.20
2006,07,03,15,26,24.10
2006,07,03,15,27,24.00
2006,07,03,15,28,23.90
2006,07,03,15,29,23.90
2006,07,03,15,30,23.90
2006,07,03,15,31,24.00
2006,07,03,15,32,24.10
2006,07,03,15,33,24.10
2006,07,03,15,34,24.20
2006,07,03,15,35,24.20
2006,07,03,15,36,24.10
2006,07,03,15,37,24.10
2006,07,03,15,38,24.20
2006,07,03,15,39,24.20
2006,07,03,15,40,24.10
2006,07,03,15,41,23.90
2006,07,03,15,42,23.80
2006,07,03,15,43,23.70
2006,07,03,15,44,23.70
2006,07,03,15,45,23.70
2006,07,03,15,46,23.70
2006,07,03,15,47,23.70
2006,07,03,15,48,23.60
2006,07,03,15,49,23.40
2006,07,03,15,50,23.40
2006,07,03,15,51,23.30
2006,07,03,15,52,23.30
2006,07,03,15,53,23.30
2006,07,03,15,54,23.30
2006,07,03,15,55,23.30
2006,07,03,15,56,23.40
2006,07,03,15,57,23.60
2006,07,03,15,58,23.70
2006,07,03,15,59,23.80
2006,07,03,16,00,23.90
2006,07,03,16,01,23.90
2006,07,03,16,02,23.90
2006,07,03,16,03,24.00
2006,07,03,16,04,24.10
2006,07,03,16,05,24.00
2006,07,03,16,06,23.90
2006,07,03,16,07,23.90
2006,07,03,16,08,23.90
2006,07,03,16,09,23.90
2006,07,03,16,10,24.00
2006,07,03,16,11,24.10
2006,07,03,16,12,24.10
2006,07,03,16,13,24.10
2006,07,03,16,14,24.10
2006,07,03,16,15,24.10
2006,07,03,16,16,24.10
2006,07,03,16,17,24.10
2006,07,03,16,18,24.10
2006,07,03,16,19,24.10
2006,07,03,16,20,24.10
2006,07,03,16,21,24.20
2006,07,03,16,22,24.40
2006,07,03,16,23,24.50
2006,07,03,16,24,24.60
2006,07,03,16,25,24.80
2006,07,03,16,26,24.90
2006,07,03,16,27,24.90
2006,07,03,16,28,24.90
2006,07,03,16,29,24.90
2006,07,03,16,30,24.80
2006,07,03,16,31,24.80
2006,07,03,16,32,24.80
2006,07,03,16,33,24.70
2006,07,03,16,34,24.70
2006,07,03,16,35,24.70
2006,07,03,16,36,24.60
2006,07,03,16,37,24.60
2006,07,03,16,38,24.50
2006,07,03,16,39,24.50
2006,07,03,16,40,24.40
2006,07,03,16,41,24.30
2006,07,03,16,42,24.10
2006,07,03,16,43,24.10
2006,07,03,16,44,24.10
2006,07,03,16,45,24.10
2006,07,03,16,46,24.20
2006,07,03,16,47,24.20
2006,07,03,16,48,24.30
2006,07,03,16,49,24.30
2006,07,03,16,50,24.20
2006,07,03,16,51,24.20
2006,07,03,16,52,24.20
2006,07,03,16,53,24.10
2006,07,03,16,54,24.10
2006,07,03,16,55,24.10
2006,07,03,16,56,24.00
2006,07,03,16,57,23.80
2006,07,03,16,58,23.70
2006,07,03,16,59,23.70
2006,07,03,17,00,23.70
2006,07,03,17,01,23.70
2006,07,03,17,02,23.80
2006,07,03,17,03,23.80
2006,07,03,17,04,23.90
2006,07,03,17,05,23.90
2006,07,03,17,06,23.70
2006,07,03,17,07,23.70
2006,07,03,17,08,23.70
2006,07,03,17,09,23.50
2006,07,03,17,10,23.40
2006,07,03,17,11,23.40
2006,07,03,17,12,23.30
2006,07,03,17,13,23.30
2006,07,03,17,14,23.30
2006,07,03,17,15,23.40
2006,07,03,17,16,23.40
2006,07,03,17,17,23.40
2006,07,03,17,18,23.40
2006,07,03,17,19,23.30